Location: Unspecified
(28.5550°N, 0.0000°E)
Time: 08:08:47
(UTC+00:00)

NOAA 16 DEB - Visible Passes

Search period start: 04 April 2026 00:00
Search period end: 14 April 2026 00:00
Orbit: 807 x 854 km, 98.7° (Epoch: 27 March)

Date Brightness Start Highest point End Pass type
(mag) Time Alt. Az. Time Alt. Az. Time Alt. Az.
4 Apr ? 18:50:41 10° SSE 18:56:00 65° ENE 19:01:17 10° N visible
4 Apr ? 20:35:33 10° WSW 20:36:33 10° W 20:37:34 10° W visible
5 Apr ? 18:33:15 10° SE 18:38:17 42° ENE 18:43:16 10° N visible
5 Apr ? 20:15:11 10° SW 20:18:37 17° W 20:22:03 10° NW visible
6 Apr ? 19:56:17 10° SSW 20:00:44 26° W 20:05:09 10° NW visible
7 Apr ? 19:37:50 10° S 19:42:52 40° W 19:47:51 10° NNW visible
8 Apr ? 19:19:43 10° S 19:25:01 63° WSW 19:30:17 10° NNW visible
9 Apr ? 19:01:51 10° SSE 19:07:12 85° ENE 19:12:32 10° NNW visible
10 Apr ? 18:44:14 10° SSE 18:49:26 56° ENE 18:54:36 10° N visible
10 Apr ? 20:27:40 10° WSW 20:29:54 13° W 20:32:08 10° WNW visible
11 Apr ? 20:08:08 10° SW 20:11:57 20° W 20:15:47 10° NW visible
12 Apr ? 19:49:22 10° SSW 19:54:02 31° W 19:58:41 10° NW visible
13 Apr ? 19:31:02 10° S 19:36:08 47° W 19:41:14 10° NNW visible
